SWA312 KBNA-KECP

Flight info

Callsign SWA312
Flight time 1h 2m
Altitude 37000
Route FLAME4 GENDE GRGIA MGMRY
Aircraft B738/M-SDE2E3FGHIRWXY/LB1

Departure

Time 2026-05-06 17:35
Airport Nashville International Airport (KBNA)

Arrival

Time 2026-05-06 18:37
Airport Northwest Florida Beaches International Airport (KECP)
Time Latitude Longitude Altitude Speed Heading
2026-05-06 17:19 36.12928 -86.66755 566 ft 0 kts 41°
2026-05-06 17:27 36.12925 -86.66758 570 ft 2 kts 41°
2026-05-06 17:28 36.12913 -86.66772 573 ft 2 kts 41°
2026-05-06 17:28 36.12901 -86.66785 570 ft 2 kts 41°
2026-05-06 17:28 36.12888 -86.66799 567 ft 2 kts 41°
2026-05-06 17:28 36.12879 -86.66809 574 ft 0 kts 41°
2026-05-06 17:30 36.12877 -86.66792 572 ft 6 kts 108°
2026-05-06 17:30 36.12832 -86.66727 569 ft 15 kts 147°
2026-05-06 17:31 36.12731 -86.66733 566 ft 16 kts 214°
2026-05-06 17:31 36.12650 -86.66819 567 ft 15 kts 221°
2026-05-06 17:31 36.12555 -86.66905 573 ft 18 kts 209°
2026-05-06 17:31 36.12442 -86.66940 577 ft 17 kts 149°
2026-05-06 17:32 36.12362 -86.66832 578 ft 17 kts 121°
2026-05-06 17:32 36.12327 -86.66697 576 ft 17 kts 110°
2026-05-06 17:32 36.12275 -86.66544 573 ft 20 kts 131°
2026-05-06 17:32 36.12148 -86.66558 574 ft 19 kts 198°
2026-05-06 17:33 36.12024 -86.66609 580 ft 18 kts 198°
2026-05-06 17:33 36.11904 -86.66656 582 ft 18 kts 197°
2026-05-06 17:33 36.11769 -86.66709 587 ft 22 kts 198°
2026-05-06 17:33 36.11624 -86.66769 590 ft 22 kts 198°
2026-05-06 17:34 36.11483 -86.66826 594 ft 21 kts 198°
2026-05-06 17:34 36.11344 -86.66878 595 ft 20 kts 187°
2026-05-06 17:34 36.11320 -86.66765 594 ft 26 kts 40°
2026-05-06 17:34 36.11798 -86.66553 584 ft 119 kts 18°
2026-05-06 17:35 36.12834 -86.66140 737 ft 183 kts 19°
2026-05-06 17:35 36.14056 -86.65598 1859 ft 189 kts 19°
2026-05-06 17:35 36.15315 -86.65007 2960 ft 196 kts 18°
2026-05-06 17:36 36.17471 -86.63760 4287 ft 226 kts 38°
2026-05-06 17:36 36.18486 -86.62234 4979 ft 234 kts 56°
2026-05-06 17:36 36.19374 -86.60453 5521 ft 255 kts 58°
2026-05-06 17:36 36.20406 -86.58511 5832 ft 287 kts 50°
2026-05-06 17:37 36.21657 -86.56487 6451 ft 304 kts 59°
2026-05-06 17:37 36.22274 -86.53990 6857 ft 306 kts 91°
2026-05-06 17:37 36.21894 -86.51413 7002 ft 308 kts 111°
2026-05-06 17:37 36.21225 -86.48889 6993 ft 308 kts 111°
2026-05-06 17:38 36.20486 -86.46431 6993 ft 300 kts 124°
2026-05-06 17:38 36.19161 -86.44544 7003 ft 285 kts 150°
2026-05-06 17:38 36.17405 -86.43469 7188 ft 282 kts 170°
2026-05-06 17:38 36.15490 -86.43165 8088 ft 276 kts 186°
2026-05-06 17:39 36.13571 -86.43223 9087 ft 276 kts 188°
2026-05-06 17:39 36.11642 -86.43333 10043 ft 280 kts 189°
2026-05-06 17:39 36.09655 -86.43455 10597 ft 297 kts 190°
2026-05-06 17:39 36.07493 -86.43588 10833 ft 323 kts 189°
2026-05-06 17:40 36.05232 -86.43707 11452 ft 334 kts 189°
2026-05-06 17:40 36.02869 -86.43817 12305 ft 337 kts 189°
2026-05-06 17:40 36.00556 -86.43919 13208 ft 338 kts 191°
2026-05-06 17:40 35.98195 -86.44026 14006 ft 342 kts 191°
2026-05-06 17:41 35.95801 -86.44137 14723 ft 346 kts 191°
2026-05-06 17:41 35.93383 -86.44249 15451 ft 349 kts 192°
2026-05-06 17:41 35.91030 -86.44716 16167 ft 337 kts 208°
2026-05-06 17:41 35.88986 -86.45992 16921 ft 325 kts 222°
2026-05-06 17:42 35.87156 -86.47618 17711 ft 324 kts 225°
2026-05-06 17:42 35.85356 -86.49307 18433 ft 326 kts 226°
2026-05-06 17:42 35.83549 -86.51018 19058 ft 330 kts 225°
2026-05-06 17:42 35.81714 -86.52746 19682 ft 333 kts 225°
2026-05-06 17:43 35.79861 -86.54477 20313 ft 336 kts 225°
2026-05-06 17:43 35.77985 -86.56217 20946 ft 339 kts 225°
2026-05-06 17:43 35.76096 -86.57962 21557 ft 341 kts 225°
2026-05-06 17:43 35.74183 -86.59724 22132 ft 345 kts 225°
2026-05-06 17:44 35.72253 -86.61498 22715 ft 347 kts 225°
2026-05-06 17:44 35.70308 -86.63283 23275 ft 350 kts 225°
2026-05-06 17:44 35.68346 -86.65083 23785 ft 353 kts 224°
2026-05-06 17:44 35.66367 -86.66896 24272 ft 356 kts 224°
2026-05-06 17:45 35.64377 -86.68718 24741 ft 358 kts 224°
2026-05-06 17:45 35.62403 -86.70526 25188 ft 360 kts 224°
2026-05-06 17:45 35.60387 -86.72370 25633 ft 363 kts 224°
2026-05-06 17:45 35.58357 -86.74226 26068 ft 365 kts 224°
2026-05-06 17:46 35.56272 -86.76045 26475 ft 373 kts 218°
2026-05-06 17:46 35.53847 -86.77348 26875 ft 390 kts 206°
2026-05-06 17:46 35.51116 -86.77935 27291 ft 407 kts 195°
2026-05-06 17:46 35.48274 -86.78167 27701 ft 411 kts 193°
2026-05-06 17:47 35.45401 -86.78326 28069 ft 415 kts 192°
2026-05-06 17:47 35.42502 -86.78471 28427 ft 418 kts 192°
2026-05-06 17:47 35.39588 -86.78623 28804 ft 420 kts 192°
2026-05-06 17:47 35.36659 -86.78791 29161 ft 423 kts 192°
2026-05-06 17:48 35.33707 -86.78973 29431 ft 426 kts 192°
2026-05-06 17:48 35.30736 -86.79165 29746 ft 429 kts 192°
2026-05-06 17:48 35.27744 -86.79364 30041 ft 432 kts 192°
2026-05-06 17:48 35.24734 -86.79565 30338 ft 434 kts 192°
2026-05-06 17:49 35.21711 -86.79768 30612 ft 437 kts 192°
2026-05-06 17:49 35.18666 -86.79973 30872 ft 439 kts 192°
2026-05-06 17:49 35.15621 -86.80176 31207 ft 439 kts 192°
2026-05-06 17:49 35.12568 -86.80377 31650 ft 437 kts 193°
2026-05-06 17:50 35.09541 -86.80575 32089 ft 435 kts 193°
2026-05-06 17:50 35.06524 -86.80775 32469 ft 434 kts 193°
2026-05-06 17:50 35.03504 -86.80976 32846 ft 434 kts 193°
2026-05-06 17:50 35.00492 -86.81176 33248 ft 432 kts 194°
2026-05-06 17:51 34.97496 -86.81375 33683 ft 430 kts 194°
2026-05-06 17:51 34.94515 -86.81573 34079 ft 428 kts 194°
2026-05-06 17:51 34.91541 -86.81771 34392 ft 427 kts 195°
2026-05-06 17:51 34.88578 -86.81969 34710 ft 427 kts 195°
2026-05-06 17:52 34.85614 -86.82167 35031 ft 425 kts 195°
2026-05-06 17:52 34.82697 -86.82360 35352 ft 424 kts 196°
2026-05-06 17:52 34.79756 -86.82554 35693 ft 423 kts 196°
2026-05-06 17:52 34.76819 -86.82730 36029 ft 422 kts 196°
2026-05-06 17:53 34.73889 -86.82887 36325 ft 422 kts 196°
2026-05-06 17:53 34.70955 -86.83029 36594 ft 422 kts 196°
2026-05-06 17:53 34.68019 -86.83156 36890 ft 421 kts 196°
2026-05-06 17:53 34.65082 -86.83271 37000 ft 424 kts 196°
2026-05-06 17:54 34.59156 -86.83521 37000 ft 427 kts 196°
2026-05-06 17:54 34.53259 -86.83763 36989 ft 421 kts 196°
2026-05-06 17:55 34.47415 -86.83984 36983 ft 422 kts 194°
2026-05-06 17:55 34.44430 -86.83689 37001 ft 437 kts 186°
2026-05-06 17:55 34.41413 -86.83086 37000 ft 441 kts 184°
2026-05-06 17:56 34.35350 -86.81706 37000 ft 443 kts 183°
2026-05-06 17:56 34.29329 -86.80399 36999 ft 442 kts 184°
2026-05-06 17:57 34.23264 -86.79172 37012 ft 442 kts 184°
2026-05-06 17:57 34.17181 -86.77980 36999 ft 443 kts 184°
2026-05-06 17:58 34.11077 -86.76791 36994 ft 445 kts 184°
2026-05-06 17:58 34.04954 -86.75596 36989 ft 446 kts 184°
2026-05-06 17:59 33.98814 -86.74397 36989 ft 448 kts 184°
2026-05-06 17:59 33.92651 -86.73195 36994 ft 450 kts 184°
2026-05-06 18:00 33.86459 -86.71990 37010 ft 452 kts 184°
2026-05-06 18:00 33.80485 -86.70828 37019 ft 453 kts 184°
2026-05-06 18:01 33.74261 -86.69618 37025 ft 453 kts 184°
2026-05-06 18:01 33.68020 -86.68408 37030 ft 455 kts 184°
2026-05-06 18:02 33.61760 -86.67196 37025 ft 455 kts 184°
2026-05-06 18:02 33.55513 -86.65986 37028 ft 454 kts 184°
2026-05-06 18:03 33.49282 -86.64782 37028 ft 453 kts 184°
2026-05-06 18:03 33.43106 -86.63591 37031 ft 452 kts 184°
2026-05-06 18:04 33.36901 -86.62398 36996 ft 451 kts 184°
2026-05-06 18:04 33.30724 -86.61211 37012 ft 449 kts 184°
2026-05-06 18:05 33.24549 -86.60026 37023 ft 449 kts 184°
2026-05-06 18:05 33.18376 -86.58844 37028 ft 450 kts 184°
2026-05-06 18:06 33.12191 -86.57660 37020 ft 451 kts 183°
2026-05-06 18:06 33.05981 -86.56391 37019 ft 457 kts 180°
2026-05-06 18:07 32.99758 -86.54616 37042 ft 462 kts 178°
2026-05-06 18:07 32.93515 -86.52706 37033 ft 464 kts 178°
2026-05-06 18:08 32.87254 -86.50834 37028 ft 464 kts 178°
2026-05-06 18:08 32.80979 -86.48997 37020 ft 465 kts 178°
2026-05-06 18:09 32.74728 -86.47181 37023 ft 466 kts 178°
2026-05-06 18:09 32.68391 -86.45342 36945 ft 468 kts 178°
2026-05-06 18:10 32.65207 -86.44423 36426 ft 472 kts 177°
2026-05-06 18:10 32.62026 -86.43500 35857 ft 470 kts 177°
2026-05-06 18:10 32.58892 -86.42590 35243 ft 470 kts 177°
2026-05-06 18:10 32.55718 -86.41668 34739 ft 468 kts 176°
2026-05-06 18:11 32.52574 -86.40754 34286 ft 465 kts 176°
2026-05-06 18:11 32.49440 -86.39845 33799 ft 462 kts 176°
2026-05-06 18:11 32.46333 -86.38946 33308 ft 458 kts 176°
2026-05-06 18:11 32.43248 -86.38055 32839 ft 455 kts 176°
2026-05-06 18:12 32.40184 -86.37170 32383 ft 451 kts 176°
2026-05-06 18:12 32.37148 -86.36295 31945 ft 448 kts 176°
2026-05-06 18:12 32.34132 -86.35427 31502 ft 444 kts 176°
2026-05-06 18:12 32.31138 -86.34566 31090 ft 441 kts 176°
2026-05-06 18:13 32.28169 -86.33713 30668 ft 438 kts 176°
2026-05-06 18:13 32.25215 -86.32865 30238 ft 436 kts 176°
2026-05-06 18:13 32.22273 -86.32020 29742 ft 433 kts 176°
2026-05-06 18:13 32.19353 -86.31204 29261 ft 429 kts 176°
2026-05-06 18:14 32.16461 -86.30425 28797 ft 425 kts 176°
2026-05-06 18:14 32.13589 -86.29662 28347 ft 421 kts 176°
2026-05-06 18:14 32.10740 -86.28910 27898 ft 417 kts 176°
2026-05-06 18:14 32.07919 -86.28164 27467 ft 414 kts 176°
2026-05-06 18:15 32.05121 -86.27422 27038 ft 410 kts 176°
2026-05-06 18:15 32.02348 -86.26686 26623 ft 407 kts 176°
2026-05-06 18:15 31.99594 -86.25954 26205 ft 404 kts 176°
2026-05-06 18:15 31.96854 -86.25226 25784 ft 402 kts 176°
2026-05-06 18:16 31.94136 -86.24503 25366 ft 400 kts 176°
2026-05-06 18:16 31.91430 -86.23784 24943 ft 397 kts 176°
2026-05-06 18:16 31.88739 -86.23069 24506 ft 396 kts 175°
2026-05-06 18:16 31.86059 -86.22358 24080 ft 394 kts 175°
2026-05-06 18:17 31.83390 -86.21650 23650 ft 392 kts 175°
2026-05-06 18:17 31.80732 -86.20945 23164 ft 390 kts 175°
2026-05-06 18:17 31.78093 -86.20244 22722 ft 387 kts 175°
2026-05-06 18:17 31.75478 -86.19550 22284 ft 384 kts 175°
2026-05-06 18:18 31.72885 -86.18862 21863 ft 381 kts 175°
2026-05-06 18:18 31.70311 -86.18180 21451 ft 377 kts 175°
2026-05-06 18:18 31.67762 -86.17505 21040 ft 374 kts 175°
2026-05-06 18:18 31.65232 -86.16836 20634 ft 371 kts 175°
2026-05-06 18:19 31.62718 -86.16171 20231 ft 369 kts 175°
2026-05-06 18:19 31.60226 -86.15514 19826 ft 366 kts 175°
2026-05-06 18:19 31.57776 -86.14867 19429 ft 364 kts 174°
2026-05-06 18:19 31.55309 -86.14217 19006 ft 363 kts 174°
2026-05-06 18:20 31.52851 -86.13569 18609 ft 361 kts 174°
2026-05-06 18:20 31.50404 -86.12925 18166 ft 360 kts 174°
2026-05-06 18:20 31.47970 -86.12283 17737 ft 357 kts 174°
2026-05-06 18:20 31.45551 -86.11646 17320 ft 355 kts 174°
2026-05-06 18:21 31.43158 -86.11016 16913 ft 352 kts 174°
2026-05-06 18:21 31.40774 -86.10388 16518 ft 349 kts 174°
2026-05-06 18:21 31.38413 -86.09767 16127 ft 346 kts 173°
2026-05-06 18:21 31.36070 -86.09151 15744 ft 344 kts 173°
2026-05-06 18:22 31.33741 -86.08540 15349 ft 342 kts 173°
2026-05-06 18:22 31.31424 -86.07932 14964 ft 340 kts 173°
2026-05-06 18:22 31.29120 -86.07328 14580 ft 338 kts 173°
2026-05-06 18:22 31.26829 -86.06727 14184 ft 337 kts 173°
2026-05-06 18:23 31.24546 -86.06129 13775 ft 335 kts 173°
2026-05-06 18:23 31.22273 -86.05534 13359 ft 333 kts 173°
2026-05-06 18:23 31.20018 -86.04943 12950 ft 331 kts 172°
2026-05-06 18:23 31.17780 -86.04358 12559 ft 328 kts 172°
2026-05-06 18:24 31.15560 -86.03777 12176 ft 325 kts 172°
2026-05-06 18:24 31.13363 -86.03202 11804 ft 322 kts 172°
2026-05-06 18:24 31.11186 -86.02633 11423 ft 319 kts 172°
2026-05-06 18:24 31.09029 -86.02069 11049 ft 317 kts 172°
2026-05-06 18:25 31.06886 -86.01510 10709 ft 313 kts 172°
2026-05-06 18:25 31.04814 -86.00966 10460 ft 299 kts 172°
2026-05-06 18:25 31.02818 -86.00443 10202 ft 287 kts 172°
2026-05-06 18:25 31.00920 -85.99944 10037 ft 272 kts 172°
2026-05-06 18:26 30.99118 -85.99472 9822 ft 261 kts 172°
2026-05-06 18:26 30.97371 -85.99017 9520 ft 255 kts 172°
2026-05-06 18:26 30.95668 -85.98576 9244 ft 253 kts 172°
2026-05-06 18:26 30.93950 -85.98132 8968 ft 253 kts 172°
2026-05-06 18:27 30.92789 -85.97831 8795 ft 253 kts 172°
2026-05-06 18:27 30.91071 -85.97386 8503 ft 253 kts 172°
2026-05-06 18:27 30.88797 -85.96795 8141 ft 252 kts 172°
2026-05-06 18:27 30.87638 -85.96495 7947 ft 253 kts 172°
2026-05-06 18:28 30.85367 -85.95906 7586 ft 253 kts 172°
2026-05-06 18:28 30.83649 -85.95460 7299 ft 253 kts 171°
2026-05-06 18:28 30.81928 -85.95012 7027 ft 254 kts 171°
2026-05-06 18:28 30.80762 -85.94710 6843 ft 255 kts 171°
2026-05-06 18:29 30.79025 -85.94259 6539 ft 256 kts 171°
2026-05-06 18:29 30.77287 -85.93808 6246 ft 256 kts 171°
2026-05-06 18:29 30.75550 -85.93358 5963 ft 256 kts 171°
2026-05-06 18:29 30.73815 -85.92909 5668 ft 256 kts 171°
2026-05-06 18:30 30.72073 -85.92457 5376 ft 256 kts 170°
2026-05-06 18:30 30.70361 -85.92011 5095 ft 255 kts 170°
2026-05-06 18:30 30.68629 -85.91563 4826 ft 255 kts 171°
2026-05-06 18:30 30.66898 -85.91117 4516 ft 255 kts 170°
2026-05-06 18:31 30.65167 -85.90668 4231 ft 255 kts 170°
2026-05-06 18:31 30.63453 -85.90223 4082 ft 248 kts 170°
2026-05-06 18:31 30.61791 -85.89792 3959 ft 241 kts 170°
2026-05-06 18:31 30.60177 -85.89374 3865 ft 234 kts 170°
2026-05-06 18:32 30.58606 -85.88968 3756 ft 229 kts 170°
2026-05-06 18:32 30.57072 -85.88571 3660 ft 222 kts 171°
2026-05-06 18:32 30.55594 -85.88132 3551 ft 217 kts 166°
2026-05-06 18:32 30.54164 -85.87570 3347 ft 217 kts 163°
2026-05-06 18:33 30.52752 -85.86956 3136 ft 217 kts 162°
2026-05-06 18:33 30.51368 -85.86343 3004 ft 209 kts 163°
2026-05-06 18:33 30.50008 -85.85748 2717 ft 207 kts 162°
2026-05-06 18:33 30.48669 -85.85164 2446 ft 204 kts 163°
2026-05-06 18:34 30.47333 -85.84585 2214 ft 207 kts 161°
2026-05-06 18:34 30.45990 -85.83997 1926 ft 201 kts 163°
2026-05-06 18:34 30.44720 -85.83440 1683 ft 190 kts 163°
2026-05-06 18:34 30.43517 -85.82914 1434 ft 178 kts 163°
2026-05-06 18:35 30.42400 -85.82428 1198 ft 164 kts 162°
2026-05-06 18:35 30.41372 -85.81978 997 ft 151 kts 161°
2026-05-06 18:35 30.40427 -85.81567 778 ft 142 kts 162°
2026-05-06 18:35 30.39533 -85.81175 626 ft 136 kts 160°
2026-05-06 18:36 30.38632 -85.80785 407 ft 142 kts 160°
2026-05-06 18:36 30.37738 -85.80394 245 ft 135 kts 159°
2026-05-06 18:36 30.36869 -85.80013 74 ft 131 kts 160°
2026-05-06 18:36 30.36069 -85.79666 60 ft 107 kts 159°
2026-05-06 18:37 30.35518 -85.79426 60 ft 62 kts 159°
2026-05-06 18:37 30.35257 -85.79311 65 ft 18 kts 158°
2026-05-06 18:37 30.35159 -85.79270 59 ft 16 kts 162°
2026-05-06 18:37 30.35072 -85.79311 61 ft 15 kts 247°
2026-05-06 18:38 30.35064 -85.79425 62 ft 15 kts 313°
2026-05-06 18:38 30.35184 -85.79481 65 ft 24 kts 340°
2026-05-06 18:38 30.35345 -85.79552 59 ft 25 kts 339°
2026-05-06 18:38 30.35498 -85.79621 58 ft 22 kts 328°
2026-05-06 18:39 30.35508 -85.79747 65 ft 11 kts 296°
2026-05-06 18:39 30.35546 -85.79821 63 ft 8 kts 281°
2026-05-06 18:39 30.35547 -85.79827 64 ft 0 kts 277°